FW3260 Weather Reports


time (UTC)temp
F
wind
direction
speed
knots
gust
knots
rain 1hr
in
rain 24hr
in
rain mn
in
humidity
%
barometer
mb
20260507010020 59 315 1.7 4.3 0.00 0.07 0.07 94 1007.0
20260507005019 59 270 2.6 7.8 0.00 0.07 0.07 94 1007.1
20260507004059 59 293 1.7 5.2 0.00 0.07 0.07 94 1006.9
20260507003039 59 315 1.7 3.5 0.00 0.07 0.07 94 1007.0
20260507002019 59 315 1.7 5.2 0.00 0.07 0.07 94 1006.9
20260507001119 59 315 1.7 5.2 0.00 0.07 0.07 94 1006.8
20260507000140 59 315 1.7 4.3 0.00 0.07 0.07 93 1006.6
20260506235019 59 293 1.7 5.2 0.02 0.07 0.07 93 1006.4
20260506234019 59 23 1.7 3.5 0.02 0.07 0.07 93 1006.5
20260506233039 59 315 1.7 3.5 0.02 0.07 0.07 93 1006.5
20260506232019 59 23 1.7 4.3 0.03 0.07 0.07 93 1006.3
20260506231019 59 338 1.7 3.5 0.03 0.07 0.07 93 1006.3
20260506230039 59 338 1.7 3.5 0.03 0.07 0.07 92 1006.5
20260506225019 60 180 1.7 5.2 0.01 0.05 0.05 92 1006.4
20260506224019 60 0 1.7 3.5 0.01 0.05 0.05 92 1006.5
20260506223019 60 0 1.7 5.2 0.01 0.05 0.05 92 1006.6
20260506222019 60 0 1.7 5.2 0.00 0.04 0.04 92 1006.6
20260506221020 60 158 1.7 4.3 0.00 0.04 0.04 91 1006.8
20260506220039 60 135 1.7 6.1 0.00 0.04 0.04 91 1006.8
20260506215019 60 338 0.9 3.5 0.00 0.04 0.04 91 1006.9
20260506214019 61 315 1.7 5.2 0.00 0.04 0.04 91 1006.9
20260506213040 61 23 1.7 3.5 0.00 0.04 0.04 90 1007.2
20260506212019 61 0 1.7 3.5 0.00 0.04 0.04 90 1007.2
20260506211019 60 315 1.7 5.2 0.00 0.04 0.04 90 1007.2
20260506210039 60 315 1.7 5.2 0.00 0.04 0.04 90 1007.3
20260506205019 61 315 2.6 5.2 0.00 0.04 0.04 90 1007.4
20260506204039 61 293 2.6 11.3 0.00 0.04 0.04 89 1007.5
20260506203039 61 293 2.6 7.0 0.00 0.04 0.04 89 1007.5
20260506202019 61 315 1.7 7.0 0.01 0.04 0.04 88 1007.6
20260506201019 61 315 2.6 7.0 0.02 0.04 0.04 88 1007.6
20260506200019 61 90 2.6 9.6 0.03 0.04 0.04 87 1007.5
20260506195019 62 315 1.7 6.1 0.04 0.04 0.04 86 1007.6
20260506194019 62 315 2.6 5.2 0.04 0.04 0.04 86 1007.5
20260506193018 63 315 2.6 7.0 0.04 0.04 0.04 84 1007.6
20260506192019 64 338 1.7 6.1 0.03 0.03 0.03 82 1007.8
20260506191019 65 315 2.6 6.1 0.02 0.02 0.02 80 1007.7
20260506190019 66 315 1.7 3.5 0.01 0.01 0.01 78 1007.6
20260506185039 66 293 2.6 7.8 0.00 0.00 0.00 77 1007.8
20260506184019 67 293 2.6 6.1 0.00 0.00 0.00 75 1007.9
20260506183018 68 293 2.6 6.1 0.00 0.00 0.00 73 1008.1
20260506182018 69 293 2.6 6.1 0.00 0.00 0.00 71 1008.2
20260506181019 69 293 3.5 11.3 0.00 0.00 0.00 68 1008.1
20260506180019 71 293 5.2 11.3 0.00 0.00 0.00 65 1008.2
20260506175018 72 293 2.6 7.8 0.00 0.00 0.00 62 1008.2
20260506174038 72 315 4.3 8.7 0.00 0.00 0.00 59 1008.1
20260506173018 73 315 4.3 11.3 0.00 0.00 0.00 58 1008.2
20260506172018 73 338 3.5 8.7 0.00 0.00 0.00 59 1008.1
20260506171019 73 315 2.6 7.0 0.00 0.00 0.00 60 1008.2
20260506170038 73 315 3.5 8.7 0.00 0.00 0.00 59 1008.3
20260506165018 73 315 3.5 11.3 0.00 0.00 0.00 59 1008.3
20260506164019 72 293 4.3 10.4 0.00 0.00 0.00 61 1008.6
20260506163039 72 293 3.5 9.6 0.00 0.00 0.00 61 1008.7
20260506162018 72 315 3.5 12.2 0.00 0.00 0.00 61 1008.7
20260506161038 71 315 1.7 5.2 0.00 0.00 0.00 63 1008.9
20260506160018 71 315 2.6 8.7 0.00 0.00 0.00 64 1009.3
20260506155018 70 0 1.7 7.0 0.00 0.00 0.00 64 1009.4
20260506154018 71 293 4.3 10.4 0.00 0.00 0.00 64 1009.3
20260506153038 71 315 2.6 8.7 0.00 0.00 0.00 63 1009.4
20260506152018 71 338 2.6 7.0 0.00 0.00 0.00 64 1009.7
20260506151018 71 293 3.5 9.6 0.00 0.00 0.00 64 1009.7
20260506150018 71 293 2.6 7.0 0.00 0.00 0.00 65 1009.8
20260506145019 71 315 3.5 9.6 0.00 0.00 0.00 66 1009.7
20260506144018 70 0 3.5 7.8 0.00 0.00 0.00 66 1009.8
20260506143018 70 68 1.7 6.1 0.00 0.00 0.00 68 1009.8
20260506142018 69 293 1.7 3.5 0.00 0.00 0.00 69 1009.8
20260506141018 68 68 1.7 5.2 0.00 0.00 0.00 70 1009.7
20260506140018 68 293 2.6 6.1 0.00 0.00 0.00 71 1009.7
20260506135038 68 315 3.5 9.6 0.00 0.00 0.00 72 1010.0
20260506134019 68 23 2.6 6.1 0.00 0.00 0.00 72 1009.9
20260506133018 68 270 3.5 8.7 0.00 0.00 0.00 72 1010.0
20260506132018 68 315 2.6 8.7 0.00 0.00 0.00 73 1010.5
20260506131039 66 338 2.6 7.0 0.00 0.00 0.00 75 1010.4
20260506130018 66 315 2.6 7.8 0.00 0.00 0.00 74 1010.3
20260506125039 66 315 3.5 7.0 0.00 0.00 0.00 75 1010.3
20260506124018 65 315 3.5 7.8 0.00 0.00 0.00 76 1010.2
20260506123018 64 338 1.7 7.8 0.00 0.00 0.00 78 1010.3
20260506122118 64 315 3.5 9.6 0.00 0.00 0.00 79 1010.4
20260506121058 63 338 3.5 8.7 0.00 0.00 0.00 79 1010.5
20260506120018 63 293 2.6 8.7 0.00 0.00 0.00 80 1010.4
20260506115018 62 315 2.6 7.0 0.00 0.00 0.00 81 1010.4
20260506114018 61 0 2.6 6.1 0.00 0.00 0.00 82 1010.8
20260506113018 61 315 3.5 10.4 0.00 0.00 0.00 82 1010.7
20260506112058 61 293 2.6 5.2 0.00 0.00 0.00 83 1011.1
20260506111018 60 315 2.6 7.8 0.00 0.00 0.00 83 1010.9
20260506110018 60 315 1.7 5.2 0.00 0.00 0.00 84 1010.8
20260506105018 60 0 1.7 7.8 0.00 0.00 0.00 84 1010.7
20260506104018 59 0 1.7 4.3 0.00 0.00 0.00 84 1010.9
20260506103018 59 0 1.7 3.5 0.00 0.00 0.00 84 1010.5
20260506102019 59 0 0.9 2.6 0.00 0.00 0.00 84 1010.7
20260506101017 59 135 1.7 4.3 0.00 0.00 0.00 84 1010.7
20260506100017 59 90 0.9 3.5 0.00 0.00 0.00 83 1010.4
20260506095018 59 45 1.7 7.0 0.00 0.00 0.00 83 1010.6
20260506094038 59 338 1.7 3.5 0.00 0.00 0.00 83 1010.4
20260506093017 59 315 0.9 3.5 0.00 0.00 0.00 83 1010.4
20260506092017 59 315 1.7 4.3 0.00 0.00 0.00 82 1010.5
20260506091018 59 270 0.9 3.5 0.00 0.00 0.00 82 1010.4
20260506090017 59 0 1.7 5.2 0.00 0.00 0.00 81 1010.4
20260506085018 59 338 1.7 3.5 0.00 0.00 0.00 81 1010.6
20260506084020 60 45 1.7 6.1 0.00 0.00 0.00 80 1010.8
20260506083019 60 23 2.6 8.7 0.00 0.00 0.00 80 1010.6
20260506082019 60 315 1.7 9.6 0.00 0.00 0.00 79 1010.7
20260506081059 60 293 1.7 4.3 0.00 0.00 0.00 79 1010.5
20260506073040 61 338 2.6 7.0 0.00 0.00 0.00 76 1010.7
20260506072020 61 315 2.6 7.0 0.00 0.00 0.00 76 1010.5
20260506071019 62 315 1.7 10.4 0.00 0.00 0.00 76 1010.3
20260506062019 63 315 1.7 3.5 0.00 0.00 0.00 73 1010.3
20260506061019 63 293 2.6 8.7 0.00 0.00 0.00 72 1010.3
20260506051019 63 315 2.6 11.3 0.00 0.00 0.00 69 1010.6
20260506045019 63 315 2.6 7.8 0.00 0.00 0.00 69 1010.8
20260506044019 63 315 1.7 7.0 0.00 0.00 0.00 69 1010.8
20260506043019 63 315 2.6 9.6 0.00 0.00 0.00 69 1010.9
20260506042020 63 315 1.7 3.5 0.00 0.00 0.00 69 1010.9
20260506041019 63 315 2.6 4.3 0.00 0.00 0.00 69 1010.9
20260506040019 63 338 1.7 3.5 0.00 0.00 0.00 69 1011.0
20260506035019 63 315 2.6 8.7 0.00 0.00 0.00 69 1010.9
20260506034019 63 315 1.7 5.2 0.00 0.00 0.00 69 1010.8
20260506033020 63 315 1.7 5.2 0.00 0.00 0.00 69 1010.8
20260506032019 63 23 1.7 3.5 0.00 0.00 0.00 68 1010.7
20260506031019 63 293 1.7 5.2 0.00 0.00 0.00 68 1010.7
20260506030019 63 315 2.6 6.1 0.00 0.00 0.00 67 1010.8
20260506025019 63 315 2.6 7.8 0.00 0.00 0.00 67 1010.6
20260506024039 63 315 2.6 8.7 0.00 0.00 0.00 66 1010.7
20260506023019 64 0 1.7 6.1 0.00 0.00 0.00 66 1010.7
20260506022019 64 315 2.6 7.0 0.00 0.00 0.00 65 1010.7
20260506021019 64 0 1.7 6.1 0.00 0.00 0.00 65 1010.7
20260506020019 64 315 1.7 6.1 0.00 0.00 0.00 64 1010.5
20260506015019 65 315 1.7 5.2 0.00 0.00 0.00 63 1010.5
20260506014019 65 338 2.6 7.8 0.00 0.00 0.00 62 1010.4
20260506013019 65 270 2.6 7.0 0.00 0.00 0.00 62 1010.2
20260506012020 66 315 2.6 7.8 0.00 0.00 0.00 61 1010.2
20260506011019 66 293 2.6 5.2 0.00 0.00 0.00 61 1010.0